Weather Roundup
Issued by NWS Chicago, IL

Home | Current Version | Previous Version | Graphics & Text | Print | Product List | Glossary On
Versions: 1 2 3 4 5 6 7 8 9 10 11 12 13 14 15 16 17 18 19 20 21 22 23 24 25 26 27 28 29 30 31 32 33 34 35 36 37 38 39 40 41 42 43 44 45 46 47 48 49 50
890
NZUS59 KLOT 081203
HRRLOT

CHICAGO AREA WEATHER ROUNDUP
NATIONAL WEATHER SERVICE CHICAGO/ROMEOVILLE IL
600 AM CST MON FEB 08 2016

NOTE: "FAIR" INDICATES FEW OR NO CLOUDS BELOW 12,000 FEET WITH NO
SIGNIFICANT WEATHER AND/OR OBSTRUCTIONS TO VISIBILITY.

* THESE STATIONS ARE NOT UNDER NWS QUALITY CONTROL. THEY ALSO MAY NOT
  REPORT WEATHER SUCH AS PRECIPITATION OR FOG.

ILZ005-006-012>014-019>023-081300-
NORTHEAST ILLINOIS

CITY           SKY/WX    TMP DP  RH WIND       PRES   REMARKS
OHARE          FLURRIES  32  29  88 SW7       29.61R WCI  26
6HR MIN TEMP:  29; 6HR MAX TEMP:  32; 6HR PCP: TRACE;

MIDWAY         FLURRIES  32  27  81 SW8       29.62S WCI  25
6HR MIN TEMP:  30; 6HR MAX TEMP:  34; 6HR PCP: TRACE;

AURORA         CLOUDY    31  26  82 W20       29.63S WCI  19
6HR MIN TEMP:  30; 6HR MAX TEMP:  33; 6HR PCP: TRACE;

LANSING*       CLOUDY    31  28  89 SW5       29.64S WCI  26
WAUKEGAN       CLOUDY    33  30  88 VRB6      29.59S WCI  28
6HR MIN TEMP:  26; 6HR MAX TEMP:  33;

DUPAGE AIRPORT FLURRIES  31  26  82 W14       29.62R WCI  21
6HR MIN TEMP:  26; 6HR MAX TEMP:  31; 6HR PCP: TRACE;

WHEELING       FLURRIES  32  29  88 SW6       29.62S WCI  26
6HR MIN TEMP:  25; 6HR MAX TEMP:  33; 6HR PCP: TRACE;

$$

WIZ051-052-058>065-066-070>072-081300-
SOUTHEAST WISCONSIN

CITY           SKY/WX    TMP DP  RH WIND       PRES   REMARKS
MILWAUKEE      LGT SNOW  31  29  92 SW3       29.58S
6HR MIN TEMP:  30; 6HR MAX TEMP:  32; 6HR PCP: TRACE;

KENOSHA*       CLOUDY    32  30  92 W9        29.59S FOG     WCI  24
RACINE*        CLOUDY    32  28  85 SW7       29.60S WCI  26
BURLINGTON     CLOUDY    29  27  92 W7        29.60R WCI  22
WAUKESHA       CLOUDY    28  27  93 W12       29.59R WCI  18
$$

INZ001>003-010>013-019-020-081300-
NORTHWEST INDIANA

CITY           SKY/WX    TMP DP  RH WIND       PRES   REMARKS
GARY*          MOCLDY    32  27  80 SW6       29.64S WCI  26
MICHIGAN CITY* NOT AVBL
RENSSELAER*    NOT AVBL
VALPARAISO     CLEAR     28  25  88 SW5       29.64S WCI  23
$$

LMZ740>746-081300-
SOUTHERN LAKE MICHIGAN

STATION/POSITION TIME  SKY/WX   TEMP WIND        PRES    VSBY
                                AIR  DIR/SP/G
                 (UTC)          (F)  (DEG/KT/KT) (MB)    (MI)
HARRISON CRIB    1100            34  250/ 13/ 14   N/A
BURNHAM HARBOR   1200            32  240/  4/  8   N/A
CALUMET HARBOR   1100            30  200/  5/  6 1002.9F
BURNS HARBOR     1100            31  200/  8/  9 1004.4S
MICHIGAN CITY    1100            31  180/  9/ 10   N/A
$$

ABBREVIATIONS USED IN REMARKS
   TC - TEMPERATURE IN CELSIUS
  WCI - WIND CHILL INDEX
   HX - HEAT INDEX
  VSB - VISIBILITY
$$




USA.gov is the U.S. government's official web portal to all federal, state and local government web resources and services.